Regional Weather Roundup
Issued by NWS

Home | Current Version | Previous Version | Text Only | Print | Product List | Glossary On
Versions: 1 2 3 4 5 6 7 8 9 10 11 12 13 14 15 16 17 18 19 20 21 22 23 24 25 26 27 28 29 30 31 32 33 34 35 36 37 38 39 40 41 42 43 44 45 46 47 48 49 50
000
ASUS42 KKEY 230510
RWRKEY

FLORIDA REGIONAL WEATHER ROUNDUP FOR THE FLORIDA KEYS
NATIONAL WEATHER SERVICE KEY WEST FLORIDA
100 AM EDT TUE SEP 23 2014

...SOUTH FLORIDA AND THE KEYS...

CITY           SKY/WX    TMP DP  RH WIND       PRES   REMARKS
FORT MYERS     MOCLDY    73  72  96 NE3       29.99F
SW REGIONAL AP NOT AVBL
NAPLES         CLOUDY    75  72  90 CALM      29.98F
MIAMI          CLOUDY    75  73  93 NE6       30.01S
WEST KENDALL   MOCLDY    77  72  84 NE6       30.00F
HOMESTEAD      MOCLDY    75  73  94 N7        30.00S
MARATHON       PTCLDY    82  78  88 N8        29.98F HX  91
BOCA CHICA NAS MOCLDY    82  76  81 NE5       29.99F
KEY WEST INTL  MOCLDY    83  76  79 NE6       29.99F HX  91

...INTERNATIONAL WEATHER...

CITY           SKY/WX    TMP DP  RH WIND       PRES   REMARKS
NASSAU BAHAMAS NOT AVBL
CANCUN MEXICO  MOCLDY    77  73  88 SE6       29.98S
COZUMEL MEXICO CLOUDY    73  73 100 CALM      29.99R THUNDER

ADJACENT COASTAL WATERS...

STATION/POSITION TIME  SKY/WX   TEMP    WIND        PRES    WAVE
                                AIR SEA DIR/SP/G            HT/PER
                 (UTC)          (F)     (DEG/KT/KT) (MB)    (FT/S)
PULASKI SHOAL LI 0500            80      70/  2/  4 1015.5F
SAND KEY         0440            83      40/  5/  8 1015.4F
SOMBRERO KEY     0500            82      30/  9/ 10 1015.6F
LONG KEY         0400            82 85   30/  8/  9 1016.4R
MOLASSES REEF    0500            80 85  350/ 12/ 13 1015.0F
FOWEY ROCKS      0500            79 84   10/ 10/ 11 1016.0R
Buoy 42080       NOT AVBL

$$


USA.gov is the U.S. government's official web portal to all federal, state and local government web resources and services.